Погода в Зырянке

Погода в Зырянке : погода сейчас, прогноз погоды и архив. Всё, что Вы хотите узнать о погоде в Зырянке!

Хотите узнать прогноз погоды в Зырянке? Тогда Вам сюда: Погода в Зырянке

Поиск расширенной информации на нашем сайте:

Полезная информация: Neverwinter online купить аб кач в neverwinter online neverwinter-diamonds.ru.

Другие новости

Новости СМИ2

Главная страница сайта

Новости сайта

03.07.2017

Напоминаем, что на нашем специализированном сайте Метеоцентр.Азия вы можете получить высокодетализированные автоматические прогнозы погоды по пунктам России, СНГ и мира в авиационном формате (включающие направление и скорость ветра, видимость, явления погоды, количество и форму облачности, нижнюю и верхнюю границу облачности).

Рекомендуем: 2016 следующий год какого животного кого

Погода в Зырянке - сегодня

Время (UTC), дата Ветер
(°,м/с) 
Видим.   Явления Облачность Т
(°С)
Тd
(°С)
f(%) Тe
(°С)
Pmin
(гПа)
dP
(гПа)
Po
(мм)
O2
(г/м3)
Тmin Tmax R s Состояние
почвы
18 19.11.17 тихо ()   20000 м    8/0 средняя 
[Ac trans]
-28.6 -31 80 -29  1016.3  -1.7  758  343           
21 19.11.17 320 (СЗ) 20000 м    10/0 средняя 
[As op]
-24.4 -26.9 80 -28  1012.2  -4  755  336  -34.2      28  равномерный
сухой снег
100% 
00 20.11.17 330 (СЗ) 20000 м  слаб. снег  10/6 960 м средняя 
[Sc|As op]
-21.9 -24.5 79 -26  1008.9  -3.1  752  331           
03 20.11.17 330 (СЗ) 2000 м  ливневой снег  10/6 900 м кучево-дожд., средняя 
[Cb cap|As op]
-22.3 -25.8 73 -29  1003.6  -5.3  748  330           
06 20.11.17 330 (СЗ) 10 км  слаб. снег{ливн. осадки}  10/8 960 м средняя 
[Sc|As op]
-20.8 -23.3 80 -27  1000.5  -3.1  746  327           
09 20.11.17 340 (С) 4{10}  4000 м  слаб. ливневой снег  10/10 180 м кучево-дожд. 
[Cb cap]
-20.1 -22.7 80 -26  998  -2.5  744  325    -20.1     
12 20.11.17 330 (СЗ) 10 км  слаб. ливневой снег  10/10 300 м кучево-дожд. 
[Cb cap]
-19.7 -22.3 80 -22  996.3  -1.7  743  324           
15 20.11.17 260 (З) 20000 м  {ливн. осадки}  10/0 средняя, верхняя 
[Ac trans|Ci fib]
-22.6 -25.1 80 -23  995.2  -1.1  742  328           
18 20.11.17 200 (Ю) 20000 м  слаб. снег{ливн. осадки}  10/0 средняя, верхняя 
[Ac trans|Cs]
-23 -25.6 79 -23  994.9  -0.4  742  328           
21 20.11.17 190 (Ю) 20000 м  в посл. час снег  10/0 средняя, верхняя 
[Ac trans|Cs]
-21.4 -23.9 80 -24  994  -0.8  741  326  -23.6    31  равномерный
сухой снег
100% 
00 21.11.17 тихо ()   20000 м  слаб. снег  10/0 
-21.1 -23.6 80 -21  993.9  -0.1  741  325           
03 21.11.17 180 (Ю) 20000 м  {снег}  6/0 средняя, верхняя 
[Ac trans|Ci fib]
-22.6 -25.8 75 -23  993.3  -0.7  741  327           
06 21.11.17 170 (Ю) 20000 м  {снег}  4/0 верхняя 
[Ci fib]
-25.3 -27.8 80 -29  993.9  0.6  741  331           
09 21.11.17 180 (Ю) 20000 м    ясно 
-28 -30.5 79 -29  994  741  335    -21.1  0.0     
12 21.11.17 тихо ()   20000 м    ясно 
-31 -33.4 79 -31  993.7  -0.3  741  339           
15 21.11.17 тихо ()   20000 м    ясно 
-31.4 -33.6 81 -31  993.7  741  339           
18 21.11.17 тихо ()   20000 м    ясно 
-35.9 -38.1 80 -36  993.8  741  346           
21 21.11.17 180 (Ю) 20000 м    ясно 
-35.7 -38.1 78 -40  994.9  1.1  742  346  -38.1      31  равномерный
сухой снег
100% 
00 22.11.17 тихо ()   20000 м    ясно 
-36.1 -39 75 -36  996.7  1.8  743  347           
03 22.11.17 тихо ()   20000 м    ясно 
-33.4 -36.2 76 -33  998.1  1.4  744  344           
06 22.11.17 тихо ()   20000 м    ясно 
-36.3 -39 76 -36  1000.4  2.3  746  349           
09 22.11.17 180 (Ю) 20000 м    10/0 средняя, верхняя 
[Ac trans|Ci fib]
-35.4 -38.4 74 -36  1003.9  3.4  748  348    -33       
12 22.11.17 170 (Ю) 20000 м    10/0 верхняя 
[Ci fib]
-32.5 -35.5 75 -33  1005.8  1.9  750  345           
15 22.11.17 180 (Ю) 20000 м    10/0 средняя, верхняя 
[Ac trans|Ci fib]
-32.6 -35.5 75 -33  1008.2  2.4  752  346           
18 22.11.17 170 (Ю) 20000 м    4/0 верхняя 
[Ci fib]
-33.4 -36.2 76 -34  1010.5  2.3  753  348           
Время (UTC), дата Ветер
(°,м/с) 
Видим.   Явления Облачность Т
(°С)
Тd
(°С)
f(%) Тe
(°С)
Pmin
(гПа)
dP
(гПа)
Po
(мм)
O2
(г/м3)
Тmin Tmax R s Состояние
почвы

Для получения пояснительной информации подведите курсор к названию столбца.

ПОГОДА в Зырянке - архив

Всё, что Вы хотите узнать о погоде в Зырянке - удобно и подробно!

Выберите нужную дату (начиная с 1 января 2015* года) и нажмите кнопку "Найти".
Будут отображены архивные сводки погоды по пункту Зырянка, начиная с указанной даты.


Отображать данные в формате CSV (для использования в таблицах Excel)


Внимание! Наш архив погоды предназначен исключительно для личного некоммерческого использования в познавательных целях. Если Вам необходимы официальные справки о состоянии погоды (для производственных, юридических, коммерческих и т.п. целей), обращайтесь в органы Росгидромета.

*Примечание: данная дата относится к архиву по метеостанциям СССР (Россия, СНГ, Балтия).
Архив по метеостанциям Зарубежной Европы и Азии (кроме Китая) хранится 10 дней, по другим регионам земного шара (Китай, Африка, Америка, Австралия, Океания) - 1 день.

Зырянка - район местоположения метеостанции


Название, широта, долгота, высота метеостанции:
Зырянка 65.7°ш. 150.9°д. 43 м над ур. моря [Российская Федерация]

Дополнительная информация

В oтличие oт бoльшинства пoгoдных сайтoв мы публикуем пoдрoбную метеoинфoрмацию в детальнoм прoфессиoнальнoм фoрмате.

Характеристики температуры и влажнoсти вoздуха измеряются на высoте 2 м в тени вдали oт зданий и деревьев.
Скoрoсть ветра измеряется на высoте 10 м (на урoвне рoста челoвека скoрoсть ветра ниже в 1.5-2 раза). Если метеoстанция нахoдится в гoрoде или в лесу, тo скoрoсть ветра занижена на 2-4 м/с пo сравнению с oткрытым местoм. Скoрoсть ветра над акватoриями крупных рек и oзёр, а также на вершинах хoлмoв на 2-5 м/с выше, чем в oбычных услoвиях.
Атмoсфернoе давление в разных тoчках местнoсти мoжет значительнo oтличаться oт давления на метеoстанции, в зависимoсти oт услoвий рельефа (при пoдъёме на 10 м давление пoнижается примернo на 1 мм рт.ст.).